User: anonymous   Login
Location: Unspecified
(0.0000°N, 0.0000°E)
Time: 06:48:57
(UTC+02:00)
Language:

DELTA 2 R/B (1) - Orbit

View from above orbital plane
View from above orbital plane
View from above satellite
View from above satellite

Ground track
Ground track

The orbit data is extracted from the following two-line orbital elements,

1 27665U 03005C   17207.65356139 -.00000023 +00000-0 +24477-4 0  9993
2 27665 039.5755 269.3111 0008043 169.3143 358.4086 14.28448606756484
Epoch (UTC): 26 July 2017 15:41:07
Eccentricity: 0.0008043
inclination: 39.5755°
perigee height: 791 km
apogee height: 802 km
right ascension of ascending node: 269.3111°
argument of perigee: 169.3143°
revolutions per day: 14.28448606
mean anomaly at epoch: 358.4086°
orbit number at epoch: 75648

The dashed part of the orbit path shows where the satellite is in the earth's shadow,  

DLR